[[{"header":{"parameterUnit":"m.s-1","parameterCategory":1,"la1":30.2991,"la2":30.254,"lo1":-89.0895,"lo2":-89.0444,"dy":0.0017,"dx":0.0017,"nx":28,"ny":28,"refTime":"2023-10-26T21:00:00:Z","depth":0,"parameterNumber":2,"parameterNumberName":"U-component_of_WINDS"},"data":[0,0,0,0,0,0,0,0,0,0,0,0,0,0,0,0,0,0,0,0,0,0,0,0,0,0,0,0,0,0,0,0,0,0,0,0,0,0,0,0,0,0,0,0,0,0,0,0,0,0,0,0,0,0,0,0,0,0,-2.7708,-2.7707,0,-2.7625,-2.7624,-2.7623,-2.7531,-2.753,-2.7528,-2.7527,-2.7444,-2.7444,-2.7443,0,0,0,0,0,0,0,0,0,0,0,0,0,-2.7791,-2.779,-2.7708,-2.7707,-2.7706,-2.7625,-2.7624,-2.7623,-2.7531,-2.753,-2.7528,-2.7527,-2.7445,-2.7444,-2.7443,0,0,0,0,0,0,0,0,0,0,0,0,0,-2.7737,-2.779,-2.7708,-2.765,-2.7644,-2.7625,-2.7624,-2.7622,-2.7532,-2.753,-2.7528,-2.7526,-2.7445,-2.7444,-2.7442,-2.7474,0,0,-2.7438,-2.7437,0,0,0,0,0,0,0,0,-2.774,-2.7734,-2.766,-2.7654,-2.7648,-2.7586,-2.7623,-2.7573,-2.7532,-2.7575,-2.7527,-2.7525,-2.7493,-2.7488,-2.7477,-2.747,-2.7467,-2.7438,-2.7437,-2.7436,-2.7436,0,0,0,0,0,0,0,-2.7744,-2.7737,-2.7675,-2.7659,-2.7652,-2.763,-2.762,-2.7613,-2.7546,-2.7571,-2.7564,-2.7555,-2.749,-2.7478,-2.7474,-2.7465,-2.7438,-2.7437,-2.7436,-2.7435,-2.7484,-2.7486,0,0,0,0,0,0,-2.7756,-2.7741,-2.7678,-2.7673,-2.769,-2.763,-2.7619,-2.7608,-2.7546,-2.7535,-2.7557,-2.7551,-2.7482,-2.7476,-2.7471,-2.7505,-2.7436,-2.7435,-2.7434,-2.7482,-2.7484,-2.7487,0,0,0,0,0,0,-2.7758,-2.7751,-2.7681,-2.7705,-2.7694,-2.7631,-2.7619,-2.7607,-2.7596,-2.7536,-2.7524,-2.7557,-2.748,-2.7473,-2.7474,-2.7501,-2.7434,-2.7433,-2.7479,-2.7482,-2.7485,-2.7574,0,0,0,0,0,0,-2.7761,-2.7752,-2.7762,-2.7706,-2.7693,-2.7685,-2.7621,-2.7607,-2.7594,-2.7585,-2.7533,-2.7522,-2.7478,-2.7477,-2.7473,-2.7498,-2.7432,-2.7476,-2.7481,-2.7484,-2.7568,-2.758,-2.759,0,0,0,0,0,-2.7764,-2.7791,-2.7763,-2.7756,-2.7704,-2.7686,-2.7679,-2.7627,-2.7596,-2.7607,-2.7569,-2.7524,-2.7499,-2.7478,-2.7473,-2.7498,-2.7474,-2.7479,-2.7484,-2.7564,-2.7578,-2.7589,0,0,0,0,0,0,-2.7852,-2.7782,-2.7751,-2.776,-2.773,-2.7671,-2.7682,-2.7643,-2.7622,-2.7615,-2.7552,-2.7541,-2.755,-2.7524,-2.7502,-2.7527,-2.7481,-2.7485,-2.7543,-2.7556,-2.7566,-2.7572,-2.7431,0,0,0,0,0,-2.7873,-2.7863,-2.7802,-2.7816,-2.7803,-2.7746,-2.7736,-2.7698,-2.7665,-2.7652,-2.7614,-2.7584,-2.757,-2.7561,-2.7545,-2.7565,-2.7553,-2.758,-2.759,-2.7599,-2.7604,-2.7615,-2.7626,-2.7502,-2.7502,-2.7502,0,0,-2.7915,-2.7875,-2.7873,-2.7833,-2.7805,-2.7798,-2.7735,-2.773,-2.7724,-2.7651,-2.765,-2.7622,-2.7585,-2.7597,-2.76,-2.7575,-2.7636,-2.7606,-2.7613,-2.7612,-2.7621,-2.7633,-2.7643,-2.7506,-2.7505,-2.7504,0,0,-2.7988,-2.7956,-2.7965,-2.7939,-2.7898,-2.7861,-2.7863,-2.7811,-2.7789,-2.7787,-2.7733,-2.7727,-2.7703,-2.7679,-2.7664,-2.7733,-2.7692,-2.7729,-2.7784,-2.7796,-2.7806,-2.7814,-2.784,-2.785,-2.7734,-2.7734,-2.7734,0,-2.8045,-2.8031,-2.7975,-2.7973,-2.7958,-2.7892,-2.7902,-2.788,-2.7836,-2.7828,-2.7801,-2.7772,-2.7742,-2.7748,-2.7766,-2.7755,-2.7758,-2.7734,-2.7809,-2.7817,-2.7824,-2.7848,-2.7857,-2.7739,-2.7738,-2.7738,-2.7737,0,-2.8104,-2.8096,-2.8108,-2.8068,-2.8055,-2.8059,-2.8005,-2.7999,-2.7964,-2.793,-2.7931,-2.7893,-2.7869,-2.7868,-2.7833,-2.787,-2.7856,-2.782,-2.7773,-2.7841,-2.7863,-2.7871,-2.7746,-2.7744,-2.7742,-2.7741,0,0,-2.8228,-2.8159,-2.8164,-2.8146,-2.8098,-2.8091,-2.8094,-2.807,-2.8067,-2.804,-2.8042,-2.8025,-2.7992,-2.7975,-2.7938,-2.7948,-2.8007,-2.7911,-2.7909,-2.7931,-2.8048,-2.8076,-2.8087,-2.798,-2.7982,-2.7983,-2.8051,0,-2.8293,-2.8292,-2.8243,-2.8257,-2.8249,-2.8189,-2.8191,-2.8163,-2.8133,-2.8123,-2.809,-2.8079,-2.8036,-2.8026,-2.8033,-2.7998,-2.803,-2.7992,-2.7982,-2.7983,-2.7993,-2.8098,-2.8126,-2.8192,-2.8059,-2.8061,-2.8062,0,-2.8367,-2.8345,-2.8358,-2.8312,-2.8307,-2.831,-2.8286,-2.8277,-2.8246,-2.8223,-2.8206,-2.8164,-2.8166,-2.8122,-2.8124,-2.81,-2.8094,-2.8077,-2.8078,-2.8075,-2.8026,-2.8098,-2.8212,-2.8223,-2.8074,-2.8073,-2.8072,0,-2.8457,-2.8431,-2.8436,-2.8422,-2.8368,-2.8373,-2.8351,-2.8317,-2.8307,-2.8286,-2.8279,-2.826,-2.8249,-2.8236,-2.8191,-2.8163,-2.82,-2.8151,-2.8182,-2.8183,-2.8192,-2.8192,-2.8307,-2.8188,-2.8188,-2.8187,-2.8187,0,-2.8534,-2.8545,-2.8476,-2.8479,-2.849,-2.8436,-2.8449,-2.8421,-2.8392,-2.839,-2.8337,-2.8337,-2.8277,-2.8271,-2.8236,-2.8245,-2.824,-2.8223,-2.8213,-2.8227,-2.823,-2.8222,-2.8216,-2.819,-2.8189,-2.8189,-2.8189,0,-2.8636,-2.859,-2.8592,-2.8542,-2.8529,-2.854,-2.8498,-2.85,-2.8467,-2.8466,-2.8462,-2.8411,-2.8401,-2.8355,-2.8334,-2.8311,-2.8332,-2.8313,-2.8343,-2.8337,-2.8371,-2.8368,-2.8485,-2.8498,-2.8371,-2.8372,-2.8373,0,-2.8688,-2.8695,-2.8646,-2.8641,-2.8621,-2.8614,-2.8603,-2.8551,-2.8543,-2.8509,-2.8516,-2.8502,-2.8488,-2.8476,-2.8438,-2.8422,-2.8403,-2.8445,-2.84,-2.8415,-2.8405,-2.8405,-2.8406,-2.8455,-2.8456,-2.8457,-2.8459,0,-2.8786,-2.8764,-2.875,-2.873,-2.872,-2.8702,-2.868,-2.8679,-2.8622,-2.8616,-2.8605,-2.8594,-2.8574,-2.8562,-2.8541,-2.852,-2.8481,-2.8473,-2.848,-2.8494,-2.8512,-2.8504,-2.8369,-2.8471,-2.8469,-2.8468,-2.8468,-2.8467,-2.8865,-2.8869,-2.8836,-2.8824,-2.8803,-2.8785,-2.8785,-2.8753,-2.8743,-2.8722,-2.8692,-2.8687,-2.8658,-2.8625,-2.8608,-2.8604,-2.8581,-2.859,-2.8593,-2.8596,-2.8604,-2.8513,-2.86,-2.86,-2.8599,-2.8599,-2.8599,0,-2.8961,-2.8937,-2.8927,-2.8899,-2.8891,-2.8854,-2.883,-2.8825,-2.8821,-2.8797,-2.8785,-2.8774,-2.8763,-2.8725,-2.871,-2.8715,-2.8697,-2.8713,-2.8712,-2.8708,-2.8624,-2.862,-2.8728,-2.8728,-2.8728,-2.8728,-2.8728,-2.8728,-2.9009,-2.9015,-2.899,-2.8986,-2.8963,-2.8956,-2.8946,-2.893,-2.8911,-2.8901,-2.8891,-2.8867,-2.8838,-2.8822,-2.8811,-2.88,-2.8798,-2.882,-2.8804,-2.8726,-2.8714,-2.8702,-2.8698,-2.882,-2.882,-2.8888,-2.8888,-2.8889]},{"header":{"parameterUnit":"m.s-1","parameterCategory":1,"la1":30.2991,"la2":30.254,"lo1":-89.0895,"lo2":-89.0444,"dy":0.0017,"dx":0.0017,"nx":28,"ny":28,"refTime":"2023-10-26T21:00:00:Z","depth":0,"parameterNumber":3,"parameterNumberName":"V-component_of_WINDS"},"data":[0,0,0,0,0,0,0,0,0,0,0,0,0,0,0,0,0,0,0,0,0,0,0,0,0,0,0,0,0,0,0,0,0,0,0,0,0,0,0,0,0,0,0,0,0,0,0,0,0,0,0,0,0,0,0,0,0,0,1.044,1.0441,0,1.0462,1.0463,1.0463,1.0548,1.055,1.0552,1.0554,1.0571,1.057,1.0568,0,0,0,0,0,0,0,0,0,0,0,0,0,1.0469,1.0468,1.044,1.0441,1.0441,1.0462,1.0463,1.0463,1.0548,1.055,1.0553,1.0555,1.0572,1.057,1.0568,0,0,0,0,0,0,0,0,0,0,0,0,0,1.047,1.0467,1.044,1.0486,1.049,1.0462,1.0463,1.0463,1.0547,1.055,1.0553,1.0556,1.0572,1.057,1.0568,1.0496,0,0,1.0562,1.0561,0,0,0,0,0,0,0,0,1.047,1.0469,1.0479,1.0483,1.0488,1.0506,1.0479,1.0474,1.0547,1.0525,1.0554,1.0557,1.0547,1.0547,1.0544,1.0497,1.0498,1.0562,1.056,1.0559,1.0559,0,0,0,0,0,0,0,1.047,1.0468,1.0449,1.0479,1.0484,1.0504,1.0508,1.0478,1.0519,1.0527,1.0534,1.0535,1.0549,1.0546,1.0545,1.0498,1.0562,1.056,1.0558,1.0558,1.0394,1.0391,0,0,0,0,0,0,1.0464,1.0468,1.0448,1.045,1.0486,1.0501,1.0505,1.0497,1.052,1.0526,1.0533,1.0539,1.0548,1.0548,1.0546,1.0464,1.0559,1.0557,1.0556,1.0397,1.0394,1.039,0,0,0,0,0,0,1.0464,1.0461,1.0447,1.046,1.046,1.0498,1.0487,1.0496,1.0492,1.0524,1.0531,1.0522,1.055,1.0549,1.0509,1.0466,1.0557,1.0555,1.0401,1.0396,1.0392,1.0298,0,0,0,0,0,0,1.0464,1.0461,1.0434,1.0459,1.0459,1.041,1.0485,1.0494,1.0489,1.0498,1.0516,1.0521,1.0553,1.0511,1.0507,1.0465,1.0553,1.0405,1.0399,1.0393,1.0305,1.0291,1.0279,0,0,0,0,0,1.0465,1.0405,1.0432,1.0429,1.0427,1.0407,1.0407,1.0446,1.0485,1.0459,1.0479,1.0521,1.0472,1.0506,1.0502,1.0458,1.0408,1.0401,1.0394,1.0311,1.0294,1.0279,0,0,0,0,0,0,1.0371,1.0409,1.044,1.0387,1.0393,1.0422,1.0389,1.0426,1.042,1.0428,1.0475,1.0479,1.0431,1.0441,1.0479,1.0391,1.0447,1.0439,1.0386,1.0369,1.0356,1.0354,1.0551,0,0,0,0,0,1.0345,1.0327,1.0361,1.0311,1.0313,1.035,1.0343,1.0373,1.0381,1.0384,1.0401,1.0406,1.0393,1.0382,1.0371,1.0308,1.0313,1.0276,1.0263,1.0252,1.0244,1.0212,1.0196,1.0367,1.0367,1.0368,0,0,1.0289,1.0308,1.0293,1.0293,1.0301,1.0281,1.0352,1.0327,1.0312,1.0379,1.0343,1.0356,1.0365,1.0313,1.0292,1.032,1.0198,1.0243,1.0234,1.0232,1.0203,1.0187,1.0173,1.0363,1.0363,1.0364,0,0,1.0177,1.019,1.015,1.0159,1.0172,1.0198,1.0188,1.0212,1.0224,1.0189,1.0239,1.0222,1.0197,1.0201,1.02,1.0094,1.0131,1.0089,1.0018,0.9987,0.9973,0.9962,0.9923,0.9909,1.0081,1.008,1.008,0,1.0106,1.0078,1.0124,1.0097,1.0095,1.0159,1.0118,1.0124,1.0131,1.0128,1.0161,1.0133,1.0143,1.0094,1.0068,1.0065,1.0055,1.0085,0.9972,0.9961,0.995,0.9914,0.9899,1.0075,1.0076,1.0076,1.0077,0,0.999,0.997,0.9936,0.9945,0.994,0.9905,0.9946,0.9935,0.9966,0.9988,0.9952,0.9967,0.9961,0.9952,0.9981,0.9907,0.9925,0.9964,1.0021,0.9928,0.9895,0.9881,1.0067,1.0069,1.0071,1.0072,0,0,0.9815,0.9854,0.984,0.9846,0.9867,0.9852,0.9821,0.9817,0.9807,0.9811,0.9786,0.9765,0.9802,0.9801,0.9832,0.9805,0.9719,0.9848,0.9849,0.9822,0.9639,0.9607,0.9591,0.9746,0.9743,0.9741,0.9638,0,0.9708,0.9659,0.9702,0.9644,0.9626,0.9688,0.9662,0.9671,0.9692,0.9679,0.9702,0.9686,0.9737,0.9737,0.9713,0.9734,0.9682,0.9743,0.9721,0.972,0.9715,0.9573,0.954,0.9441,0.9625,0.9623,0.9621,0,0.9576,0.9577,0.9518,0.9545,0.954,0.9515,0.9516,0.9503,0.9516,0.9533,0.9533,0.9572,0.9543,0.9601,0.9562,0.9602,0.9596,0.9605,0.9603,0.96,0.9663,0.9566,0.9411,0.9395,0.9601,0.9603,0.9604,0,0.9454,0.9441,0.9405,0.9408,0.9438,0.942,0.9431,0.9447,0.9443,0.9443,0.9441,0.9437,0.9434,0.943,0.9467,0.9506,0.9423,0.9483,0.9435,0.9434,0.9413,0.9413,0.9253,0.9411,0.9412,0.9412,0.9412,0,0.9329,0.929,0.9351,0.9328,0.9287,0.9336,0.9294,0.9312,0.9326,0.9307,0.936,0.9341,0.9392,0.9378,0.9407,0.937,0.9368,0.938,0.9388,0.9375,0.9373,0.937,0.9377,0.9408,0.9409,0.941,0.941,0,0.9184,0.9224,0.9188,0.9222,0.9229,0.9197,0.9225,0.9205,0.9231,0.9207,0.9204,0.9243,0.923,0.9268,0.9259,0.9279,0.9225,0.9245,0.9221,0.9226,0.9176,0.9179,0.9006,0.8986,0.9158,0.9157,0.9155,0,0.9101,0.9073,0.9105,0.9098,0.9107,0.9094,0.9091,0.9139,0.9133,0.9147,0.9125,0.9117,0.9113,0.9089,0.9116,0.911,0.9129,0.9069,0.9128,0.9116,0.9127,0.9127,0.9125,0.9056,0.9054,0.9052,0.905,0,0.8949,0.897,0.8965,0.8966,0.8961,0.8964,0.897,0.8961,0.9013,0.9003,0.8992,0.8989,0.8983,0.8973,0.8974,0.8985,0.9025,0.9032,0.9021,0.9005,0.8993,0.8998,0.9186,0.9035,0.9037,0.9038,0.9039,0.9039,0.8832,0.881,0.883,0.8822,0.8833,0.8838,0.8822,0.8847,0.8839,0.8838,0.8868,0.885,0.8865,0.8871,0.8878,0.8865,0.8892,0.8875,0.8871,0.8865,0.8857,0.8997,0.8865,0.8866,0.8866,0.8867,0.8867,0,0.8681,0.8698,0.8691,0.8699,0.8693,0.8736,0.8746,0.8737,0.8722,0.8733,0.8729,0.8716,0.8709,0.8737,0.8733,0.8717,0.8735,0.8714,0.8714,0.8716,0.8833,0.8843,0.8699,0.8699,0.8699,0.8699,0.8699,0.8699,0.8602,0.8569,0.8593,0.8566,0.8582,0.8567,0.8569,0.8575,0.8585,0.8569,0.8563,0.8583,0.8601,0.8599,0.8594,0.8602,0.8598,0.857,0.8584,0.8692,0.8708,0.8723,0.8733,0.8568,0.8568,0.8469,0.8468,0.8467]}]]